�N����,����,�g�[���i�䏊�j���x,�g�[�����x,��g�[���i���ցj���x,����
 2003/12/01, 0:00,20.2,60,16.4,16
 2003/12/01, 0:15,20.1,60,16.3,16
 2003/12/01, 0:30,20,59,16.4,16.1
 2003/12/01, 0:45,19.9,59,16.2,16.1
 2003/12/01, 1:00,19.7,59,16.1,16.1
 2003/12/01, 1:15,19.7,59,16.2,16.2
 2003/12/01, 1:30,19.5,59,16.2,16.2
 2003/12/01, 1:45,19.5,59,16.2,16.3
 2003/12/01, 2:00,19.3,59,16.1,16.3
 2003/12/01, 2:15,19.4,59,16.2,15.9
 2003/12/01, 2:30,19.1,59,16.1,16
 2003/12/01, 2:45,19.1,59,16,16
 2003/12/01, 3:00,19,59,16,16
 2003/12/01, 3:15,19.1,59,16,16.1
 2003/12/01, 3:30,18.8,59,15.8,16.1
 2003/12/01, 3:45,18.8,59,15.9,16.1
 2003/12/01, 4:00,18.7,59,15.9,16.2
 2003/12/01, 4:15,18.6,59,15.8,16.2
 2003/12/01, 4:30,18.6,59,15.9,16.2
 2003/12/01, 4:45,18.5,59,15.8,16.3
 2003/12/01, 5:00,18.4,60,15.8,16.3
 2003/12/01, 5:15,18.4,60,15.7,16.3
 2003/12/01, 5:30,18.3,60,15.8,16.4
 2003/12/01, 5:45,18.5,62,16,15.9
 2003/12/01, 6:00,18.6,75,16,15.9
 2003/12/01, 6:15,18.6,66,16.1,16
 2003/12/01, 6:30,18.9,70,16,16
 2003/12/01, 6:45,19,73,16,16.3
 2003/12/01, 7:00,21.6,60,15.9,16.5
 2003/12/01, 7:15,22.1,58,16,16.5
 2003/12/01, 7:30,22.3,57,16.3,16.4
 2003/12/01, 7:45,21.6,57,16.3,16.4
 2003/12/01, 8:00,20.5,52,16.5,16.5
 2003/12/01, 8:15,20.1,52,16.4,16.5
 2003/12/01, 8:30,19.8,50,16.3,16.5
 2003/12/01, 8:45,19.3,50,16.4,16.5
 2003/12/01, 9:00,19.2,50,16.4,16.6
 2003/12/01, 9:15,18.8,49,16.3,16.6
 2003/12/01, 9:30,18.8,52,16.3,16.6
 2003/12/01, 9:45,18.9,58,16.4,16.6
 2003/12/01,10:00,18.8,55,16.3,16.6
 2003/12/01,10:15,18.8,54,16.2,16.7
 2003/12/01,10:30,18.7,54,16.2,16.7
 2003/12/01,10:45,18.5,55,16.3,16.7
 2003/12/01,11:00,18.7,55,16.3,16.7
 2003/12/01,11:15,18.5,55,16.3,16.8
 2003/12/01,11:30,18.5,56,16.2,16.8
 2003/12/01,11:45,18.5,55,16.2,16.8
 2003/12/01,12:00,18.3,56,16.3,16.8
 2003/12/01,12:15,18.5,55,16.3,16.8
 2003/12/01,12:30,18.5,55,16.2,16.8
 2003/12/01,12:45,18.3,56,16.3,16.9
 2003/12/01,13:00,18.2,56,16.3,16.9
 2003/12/01,13:15,18.2,56,16.2,16.9
 2003/12/01,13:30,18.5,55,16.2,16.9
 2003/12/01,13:45,18.5,55,16.2,16.9
 2003/12/01,14:00,18.3,56,16.2,16.9
 2003/12/01,14:15,18.3,55,16.2,17
 2003/12/01,14:30,18.2,56,16.2,17
 2003/12/01,14:45,18.3,55,16.3,17
 2003/12/01,15:00,18,56,16.1,17
 2003/12/01,15:15,18.1,56,16.1,17
 2003/12/01,15:30,17.9,57,16.2,16.4
 2003/12/01,15:45,18.2,58,16,16.4
 2003/12/01,16:00,18.1,58,16,16.4
 2003/12/01,16:15,18.3,57,16.1,16.5
 2003/12/01,16:30,22.2,48,16.2,15.9
 2003/12/01,16:45,20.8,53,16.2,16
 2003/12/01,17:00,20,57,16,16
 2003/12/01,17:15,22.5,51,16,16.1
 2003/12/01,17:30,22.3,53,16,16.1
 2003/12/01,17:45,22.5,54,16,16
 2003/12/01,18:00,22.7,55,16.2,16.1
 2003/12/01,18:15,22.7,49,16.2,16.1
 2003/12/01,18:30,23.6,46,16.1,16.2
 2003/12/01,18:45,23,47,16.2,16.2
 2003/12/01,19:00,23.4,44,16.4,16.2
 2003/12/01,19:15,22.8,46,16.2,16.2
 2003/12/01,19:30,22.8,46,16.5,16.3
 2003/12/01,19:45,22.9,47,16.5,16.3
 2003/12/01,20:00,23,49,16.4,16.2
 2003/12/01,20:15,22.5,49,16.3,16
 2003/12/01,20:30,22.8,48,16.5,16.1
 2003/12/01,20:45,22.7,48,16.4,16.1
 2003/12/01,21:00,22.8,48,16.4,16.1
 2003/12/01,21:15,22.9,50,16.4,16.2
 2003/12/01,21:30,23.1,51,16.3,16.2
 2003/12/01,21:45,23.3,56,16.3,16.3
 2003/12/01,22:00,23.5,59,16.4,16.3
 2003/12/01,22:15,23.1,60,16.4,16.3
 2003/12/01,22:30,22.7,63,16.4,16.3
 2003/12/01,22:45,22.4,61,16.3,16.4
 2003/12/01,23:00,22.1,58,16.4,16
 2003/12/01,23:15,21.7,56,16.2,16.1
 2003/12/01,23:30,21.3,52,16.5,16.2
 2003/12/01,23:45,21.1,53,16.3,16.1
 2003/12/02, 0:00,20.8,53,16.2,16
 2003/12/02, 0:15,20.8,54,16.1,16
 2003/12/02, 0:30,20.5,54,16,16.1
 2003/12/02, 0:45,20.5,54,16,16.1
 2003/12/02, 1:00,20.3,55,15.9,16.1
 2003/12/02, 1:15,20.2,54,15.8,16.1
 2003/12/02, 1:30,20,55,15.8,16.2
 2003/12/02, 1:45,19.9,55,15.8,15.8
 2003/12/02, 2:00,19.9,55,15.8,15.8
 2003/12/02, 2:15,19.6,55,15.7,15.9
 2003/12/02, 2:30,19.6,55,15.8,15.9
 2003/12/02, 2:45,19.4,55,15.6,15.9
 2003/12/02, 3:00,19.3,55,15.6,16
 2003/12/02, 3:15,19.2,56,15.6,15.7
 2003/12/02, 3:30,19.1,55,15.6,15.8
 2003/12/02, 3:45,19.2,55,15.5,15.8
 2003/12/02, 4:00,19,55,15.4,15.8
 2003/12/02, 4:15,18.9,56,15.5,15.9
 2003/12/02, 4:30,18.8,55,15.4,15.9
 2003/12/02, 4:45,19,55,15.4,15.9
 2003/12/02, 5:00,18.8,55,15.3,15.9
 2003/12/02, 5:15,18.7,55,15.2,16
 2003/12/02, 5:30,18.7,55,15.3,16
 2003/12/02, 5:45,18.5,54,15.5,15.7
 2003/12/02, 6:00,18.5,60,15.6,15.7
 2003/12/02, 6:15,18.5,62,15.6,15.7
 2003/12/02, 6:30,22.6,49,15.5,15.8
 2003/12/02, 6:45,22.7,49,15.5,15.8
 2003/12/02, 7:00,22.6,48,15.5,16.4
 2003/12/02, 7:15,23.2,47,15.5,16.5
 2003/12/02, 7:30,23.1,46,15.5,16.1
 2003/12/02, 7:45,24.1,42,15.4,16.1
 2003/12/02, 8:00,23.3,44,15.4,16.1
 2003/12/02, 8:15,22,46,15.6,16.1
 2003/12/02, 8:30,20.4,39,16,16.1
 2003/12/02, 8:45,19.9,40,16.1,16.2
 2003/12/02, 9:00,19.7,42,15.7,16.2
 2003/12/02, 9:15,19.7,45,15.8,16.2
 2003/12/02, 9:30,19.7,45,15.7,16.2
 2003/12/02, 9:45,19.5,46,15.8,16.3
 2003/12/02,10:00,19.4,48,15.9,16.3
 2003/12/02,10:15,19.3,53,15.8,16.4
 2003/12/02,10:30,19,50,15.9,16.4
 2003/12/02,10:45,19,49,16,16.4
 2003/12/02,11:00,18.9,49,16,16.4
 2003/12/02,11:15,18.8,49,16,16.4
 2003/12/02,11:30,18.6,50,15.9,16.4
 2003/12/02,11:45,18.6,49,16,16.4
 2003/12/02,12:00,18.4,50,16.1,16.5
 2003/12/02,12:15,18.5,49,16,16.5
 2003/12/02,12:30,18.3,50,16.1,16.5
 2003/12/02,12:45,18.2,50,16.2,16.5
 2003/12/02,13:00,18.2,50,16.2,16.5
 2003/12/02,13:15,18.2,50,16.2,16.5
 2003/12/02,13:30,18.3,50,16.3,16.5
 2003/12/02,13:45,18.1,50,16.2,16.5
 2003/12/02,14:00,18.2,49,16.3,16.6
 2003/12/02,14:15,18.1,49,16.1,16.6
 2003/12/02,14:30,18.1,49,16.1,16.6
 2003/12/02,14:45,18,49,16,16.6
 2003/12/02,15:00,18,49,16,16.6
 2003/12/02,15:15,18.2,56,16.1,15.8
 2003/12/02,15:30,18.1,51,16.2,16.3
 2003/12/02,15:45,18.3,50,16.1,16.3
 2003/12/02,16:00,17.9,49,15.9,16.3
 2003/12/02,16:15,17.9,48,15.7,16.3
 2003/12/02,16:30,17.8,48,15.7,16.3
 2003/12/02,16:45,17.8,48,15.6,16.4
 2003/12/02,17:00,17.7,48,15.6,16.4
 2003/12/02,17:15,19.5,45,15.7,15.8
 2003/12/02,17:30,18.4,50,15.5,15.8
 2003/12/02,17:45,18,48,15.4,15.8
 2003/12/02,18:00,18.2,48,15.2,15.9
 2003/12/02,18:15,22.9,42,15.5,15.9
 2003/12/02,18:30,23.4,46,15.2,16.1
 2003/12/02,18:45,22.9,52,15.2,16.1
 2003/12/02,19:00,23.5,44,15.5,16.4
 2003/12/02,19:15,23.2,42,15.3,16.4
 2003/12/02,19:30,23.5,40,15.2,16.4
 2003/12/02,19:45,22.9,40,15.2,16.5
 2003/12/02,20:00,23.4,40,15.1,16.5
 2003/12/02,20:15,23.4,38,16.4,16.5
 2003/12/02,20:30,23.6,37,16,16.5
 2003/12/02,20:45,24.1,39,15.9,16.5
 2003/12/02,21:00,23.3,39,15.6,16
 2003/12/02,21:15,22,40,15.5,16.1
 2003/12/02,21:30,21.4,43,15.6,16.3
 2003/12/02,21:45,21.3,48,15.1,16.3
 2003/12/02,22:00,21.1,45,15,16.3
 2003/12/02,22:15,21.3,51,14.9,16.4
 2003/12/02,22:30,20.8,50,14.9,16.4
 2003/12/02,22:45,20.8,51,14.8,16.4
 2003/12/02,23:00,20.6,49,14.9,16.2
 2003/12/02,23:15,20.3,49,14.6,16.2
 2003/12/02,23:30,20.3,49,14.6,16.2
 2003/12/02,23:45,20,50,14.5,16.2
 2003/12/03, 0:00,19.8,50,14.5,16.2
 2003/12/03, 0:15,19.7,50,14.3,16.3
 2003/12/03, 0:30,19.4,51,14.2,16.3
 2003/12/03, 0:45,19.4,50,14,16.3
 2003/12/03, 1:00,19.1,51,14,16.3
 2003/12/03, 1:15,19,51,13.9,16.3
 2003/12/03, 1:30,18.9,51,14,15.6
 2003/12/03, 1:45,18.6,51,13.8,15.7
 2003/12/03, 2:00,18.7,51,13.6,15.7
 2003/12/03, 2:15,18.3,52,13.6,15.7
 2003/12/03, 2:30,18.4,52,13.4,15.7
 2003/12/03, 2:45,18.2,52,13.4,15.7
 2003/12/03, 3:00,18,52,13.3,15.7
 2003/12/03, 3:15,18,52,13.3,15.8
 2003/12/03, 3:30,17.8,52,13.3,15.8
 2003/12/03, 3:45,17.8,52,13.3,15.8
 2003/12/03, 4:00,17.6,53,13.2,15.4
 2003/12/03, 4:15,17.4,53,13.1,15.4
 2003/12/03, 4:30,17.4,53,13,15.4
 2003/12/03, 4:45,17.4,53,13.1,15.5
 2003/12/03, 5:00,17.2,53,13.1,15.5
 2003/12/03, 5:15,17,53,12.9,15.5
 2003/12/03, 5:30,16.9,54,13,15.5
 2003/12/03, 5:45,17,53,13.1,15.1
 2003/12/03, 6:00,17,58,12.8,15.3
 2003/12/03, 6:15,16.9,59,12.7,15.3
 2003/12/03, 6:30,21.9,46,12.5,15.3
 2003/12/03, 6:45,23.3,44,12.7,15.4
 2003/12/03, 7:00,23.2,43,13.3,16.4
 2003/12/03, 7:15,23.7,38,13.3,16.4
 2003/12/03, 7:30,23.4,39,12.8,15.7
 2003/12/03, 7:45,23.4,37,12.7,15.7
 2003/12/03, 8:00,23,42,12.8,15.7
 2003/12/03, 8:15,23.2,40,12.9,16.2
 2003/12/03, 8:30,21,42,13.5,16.2
 2003/12/03, 8:45,20.3,46,14,16.2
 2003/12/03, 9:00,19.3,48,14.2,16.2
 2003/12/03, 9:15,19,41,14.4,16.2
 2003/12/03, 9:30,19,41,14.8,16.2
 2003/12/03, 9:45,18.5,44,15,16
 2003/12/03,10:00,18.4,45,15.1,16
 2003/12/03,10:15,18.1,46,15.3,16
 2003/12/03,10:30,17.9,47,15.1,16
 2003/12/03,10:45,17.8,47,15.1,16
 2003/12/03,11:00,17.9,47,15.3,16
 2003/12/03,11:15,17.8,48,15.2,16
 2003/12/03,11:30,17.5,48,15.3,16
 2003/12/03,11:45,17.7,47,15.2,16
 2003/12/03,12:00,17.5,48,15.3,16.1
 2003/12/03,12:15,17.6,47,15.2,16.1
 2003/12/03,12:30,17.4,48,15.3,16.1
 2003/12/03,12:45,17.4,48,15.4,16.1
 2003/12/03,13:00,17.3,48,15.3,16.1
 2003/12/03,13:15,17.4,48,15.3,16.1
 2003/12/03,13:30,17.5,48,15.3,16.1
 2003/12/03,13:45,17.2,48,15.4,16.1
 2003/12/03,14:00,17.3,48,15.5,16.1
 2003/12/03,14:15,17.2,47,15.5,16.1
 2003/12/03,14:30,17.6,49,15.7,16.1
 2003/12/03,14:45,17.7,47,15.5,16.1
 2003/12/03,15:00,17.6,46,15.5,16.1
 2003/12/03,15:15,17.4,46,15.5,15.4
 2003/12/03,15:30,17.7,46,15.6,16.2
 2003/12/03,15:45,17.9,46,15.8,16.2
 2003/12/03,16:00,17.8,46,15.6,16.2
 2003/12/03,16:15,19.5,44,15.8,16.2
 2003/12/03,16:30,18.8,45,15.9,16.2
 2003/12/03,16:45,18.4,47,15.7,16.2
 2003/12/03,17:00,18.5,48,15.5,16.2
 2003/12/03,17:15,18.1,48,15.6,15.4
 2003/12/03,17:30,18.4,48,15.3,15.4
 2003/12/03,17:45,22.3,43,15.3,15.5
 2003/12/03,18:00,22.5,47,15.2,15.5
 2003/12/03,18:15,22.7,46,15.5,15.3
 2003/12/03,18:30,21.2,50,15,15.4
 2003/12/03,18:45,20.4,51,14.8,15.4
 2003/12/03,19:00,20.1,50,15,15.5
 2003/12/03,19:15,19.6,50,14.8,15.6
 2003/12/03,19:30,19.5,50,14.9,15.6
 2003/12/03,19:45,19.2,51,15.2,15.7
 2003/12/03,20:00,22.8,48,15.5,15.7
 2003/12/03,20:15,22.6,46,15.3,15.7
 2003/12/03,20:30,23,44,15.3,15.7
 2003/12/03,20:45,22.9,43,15.4,15.7
 2003/12/03,21:00,23.1,40,15.4,15.8
 2003/12/03,21:15,23.2,40,15.3,15.4
 2003/12/03,21:30,23.2,39,15.3,15.5
 2003/12/03,21:45,23,40,15.2,15.7
 2003/12/03,22:00,23.2,39,15.2,15.7
 2003/12/03,22:15,23.1,38,15.2,15.6
 2003/12/03,22:30,23,40,15.1,16.1
 2003/12/03,22:45,23.3,42,15,16.1
 2003/12/03,23:00,21.6,44,14.6,15.9
 2003/12/03,23:15,21,46,14.8,16.1
 2003/12/03,23:30,20.9,47,14.5,16.1
 2003/12/03,23:45,20.5,58,14.3,16.1
 2003/12/04, 0:00,20.3,53,14.4,16.1
 2003/12/04, 0:15,20.1,51,14.2,16.1
 2003/12/04, 0:30,19.7,52,14.2,16.1
 2003/12/04, 0:45,19.6,51,14,16.1
 2003/12/04, 1:00,19.3,51,14,16.1
 2003/12/04, 1:15,19,50,14.4,16.1
 2003/12/04, 1:30,18.8,50,14.1,16.1
 2003/12/04, 1:45,18.6,49,14,16.1
 2003/12/04, 2:00,18.5,49,14,16.1
 2003/12/04, 2:15,18.2,49,13.9,16.1
 2003/12/04, 2:30,17.9,49,13.8,16.1
 2003/12/04, 2:45,17.8,49,13.8,16.1
 2003/12/04, 3:00,17.7,50,13.7,16.1
 2003/12/04, 3:15,17.6,49,13.6,16.1
 2003/12/04, 3:30,17.3,50,13.5,16.1
 2003/12/04, 3:45,17.2,50,13.4,16.1
 2003/12/04, 4:00,17,50,13.3,16.1
 2003/12/04, 4:15,16.9,50,13.4,16.1
 2003/12/04, 4:30,16.8,50,13.3,16.1
 2003/12/04, 4:45,16.7,50,13.2,16.1
 2003/12/04, 5:00,16.5,51,13.1,16.1
 2003/12/04, 5:15,16.4,51,13,16.1
 2003/12/04, 5:30,16.3,51,13.2,16
 2003/12/04, 5:45,16.2,51,13,15
 2003/12/04, 6:00,16,55,12.8,15.2
 2003/12/04, 6:15,16.2,54,12.8,15.2
 2003/12/04, 6:30,21.7,45,12.7,15.2
 2003/12/04, 6:45,22.4,47,12.8,16.2
 2003/12/04, 7:00,22.5,49,12.8,16.1
 2003/12/04, 7:15,23.8,48,12.5,16.1
 2003/12/04, 7:30,22.7,51,12.8,15.5
 2003/12/04, 7:45,23.4,48,12.9,15.5
 2003/12/04, 8:00,23.1,48,13.3,15.5
 2003/12/04, 8:15,22.9,47,13.4,15.5
 2003/12/04, 8:30,21.7,43,13.8,15.8
 2003/12/04, 8:45,20,36,14.2,15.8
 2003/12/04, 9:00,19.5,34,14.3,15.8
 2003/12/04, 9:15,19.2,37,14.2,15.8
 2003/12/04, 9:30,18.5,45,14.4,15.8
 2003/12/04, 9:45,18.6,44,14.6,15.8
 2003/12/04,10:00,18.4,44,14.7,15.8
 2003/12/04,10:15,18.2,46,14.7,15.8
 2003/12/04,10:30,18.1,46,14.8,15.8
 2003/12/04,10:45,17.9,46,15,15.8
 2003/12/04,11:00,17.8,46,14.9,15.8
 2003/12/04,11:15,17.5,46,15,15.8
 2003/12/04,11:30,17.7,45,15.1,15.8
 2003/12/04,11:45,17.4,46,15,15.8
 2003/12/04,12:00,17.4,47,15.1,15.8
 2003/12/04,12:15,17.3,47,15,15.8
 2003/12/04,12:30,17.2,47,15.1,15.8
 2003/12/04,12:45,17.4,47,15.1,15.8
 2003/12/04,13:00,17.1,47,15.1,15.8
 2003/12/04,13:15,17.1,48,15.1,15.8
 2003/12/04,13:30,17.1,48,15,15.8
 2003/12/04,13:45,17.2,48,15,15.8
 2003/12/04,14:00,16.9,48,15.1,15.8
 2003/12/04,14:15,16.9,48,15,15.8
 2003/12/04,14:30,17.1,49,15.1,15.9
 2003/12/04,14:45,17,49,14.9,15.9
 2003/12/04,15:00,17.2,49,15.3,15.2
 2003/12/04,15:15,17,50,14.9,15.2
 2003/12/04,15:30,17.2,50,15,15.2
 2003/12/04,15:45,17.1,50,14.9,15.2
 2003/12/04,16:00,17,49,14.9,15.3
 2003/12/04,16:15,17,48,15,15
 2003/12/04,16:30,17,49,14.9,15.1
 2003/12/04,16:45,17.3,49,14.8,15
 2003/12/04,17:00,17,49,14.8,15
 2003/12/04,17:15,16.8,49,14.6,15.1
 2003/12/04,17:30,16.9,49,14.6,15.6
 2003/12/04,17:45,17.2,68,14.5,15.6
 2003/12/04,18:00,17.6,54,14.6,15.3
 2003/12/04,18:15,23.3,43,14.5,15.7
 2003/12/04,18:30,23.6,38,14.8,15.7
 2003/12/04,18:45,23.9,36,14.7,15.3
 2003/12/04,19:00,25,34,14.6,15.3
 2003/12/04,19:15,24.1,35,14.8,15.4
 2003/12/04,19:30,24.5,34,15.1,15.7
 2003/12/04,19:45,24.5,34,14.7,15.7
 2003/12/04,20:00,24.4,33,14.9,15.8
 2003/12/04,20:15,24.1,33,15.1,15.8
 2003/12/04,20:30,24.4,35,15.2,15.8
 2003/12/04,20:45,24.5,37,14.8,15.8
 2003/12/04,21:00,23.4,37,14.8,15.8
 2003/12/04,21:15,23,37,15.5,15.8
 2003/12/04,21:30,21.5,40,15,15.3
 2003/12/04,21:45,21.4,52,14.6,15.3
 2003/12/04,22:00,21.3,48,14.6,15.3
 2003/12/04,22:15,20.9,50,14.4,15.7
 2003/12/04,22:30,20.7,52,14.4,15.7
 2003/12/04,22:45,20.7,54,14.4,15.7
 2003/12/04,23:00,20.2,52,14.2,15.4
 2003/12/04,23:15,20,51,14.1,15.4
 2003/12/04,23:30,19.9,50,14.1,15.4
 2003/12/04,23:45,19.4,50,13.9,15.4
 2003/12/05, 0:00,19.3,50,13.8,15.4
 2003/12/05, 0:15,19.1,49,13.9,14.9
 2003/12/05, 0:30,18.7,50,13.5,14.9
 2003/12/05, 0:45,18.7,49,13.5,15
 2003/12/05, 1:00,18.7,49,13.4,15
 2003/12/05, 1:15,18.4,50,13.3,15
 2003/12/05, 1:30,18.1,50,12.9,15
 2003/12/05, 1:45,17.9,51,13,15
 2003/12/05, 2:00,18,50,12.7,15
 2003/12/05, 2:15,17.9,50,12.9,15
 2003/12/05, 2:30,17.7,51,12.6,15
 2003/12/05, 2:45,17.7,50,12.7,15
 2003/12/05, 3:00,17.5,51,12.5,15
 2003/12/05, 3:15,17.3,51,12.4,15
 2003/12/05, 3:30,17.1,51,12.5,15
 2003/12/05, 3:45,17.1,51,12.4,15
 2003/12/05, 4:00,16.8,52,12.3,15
 2003/12/05, 4:15,16.8,52,12.3,15
 2003/12/05, 4:30,16.6,52,12.2,15
 2003/12/05, 4:45,16.5,52,12.3,15
 2003/12/05, 5:00,16.5,52,12.3,15
 2003/12/05, 5:15,16.3,52,12.1,15
 2003/12/05, 5:30,16.3,52,12,15
 2003/12/05, 5:45,16.1,53,12.1,15
 2003/12/05, 6:00,16,53,12,15
 2003/12/05, 6:15,19,46,12.2,14.6
 2003/12/05, 6:30,23,44,12.1,15.5
 2003/12/05, 6:45,24,43,12.4,15.4
 2003/12/05, 7:00,24.1,47,12.3,15.6
 2003/12/05, 7:15,23.7,48,12.4,15.2
 2003/12/05, 7:30,22.8,48,12.3,15.2
 2003/12/05, 7:45,21.7,50,12.4,15.2
 2003/12/05, 8:00,20.7,52,12.4,15.2
 2003/12/05, 8:15,20.2,53,12.5,15.2
 2003/12/05, 8:30,20,53,12.4,15.2
 2003/12/05, 8:45,19,46,13,15.2
 2003/12/05, 9:00,18.5,46,13.2,15.2
 2003/12/05, 9:15,17.9,38,13.1,15.2
 2003/12/05, 9:30,17.6,46,13.5,15.1
 2003/12/05, 9:45,17.4,55,13.8,15.7
 2003/12/05,10:00,17.3,51,13.8,15.7
 2003/12/05,10:15,17.2,49,13.9,15.7
 2003/12/05,10:30,17,48,14.1,15.6
 2003/12/05,10:45,17,48,14.1,15.6
 2003/12/05,11:00,16.7,48,14.1,15.6
 2003/12/05,11:15,16.9,47,14.2,15.6
 2003/12/05,11:30,16.7,47,14.3,15.6
 2003/12/05,11:45,16.5,47,14.4,15.6
 2003/12/05,12:00,16.5,47,14.4,15.6
 2003/12/05,12:15,16.6,48,14.4,15.6
 2003/12/05,12:30,16.5,49,14.5,15.6
 2003/12/05,12:45,16.5,49,14.5,15.6
 2003/12/05,13:00,16.6,49,14.7,15.6
 2003/12/05,13:15,16.5,49,14.7,15.6
 2003/12/05,13:30,16.4,49,14.8,15.6
 2003/12/05,13:45,16.5,48,14.9,15.6
 2003/12/05,14:00,16.6,49,15,15.6
 2003/12/05,14:15,16.4,49,14.9,15.6
 2003/12/05,14:30,16.4,49,14.9,15.6
 2003/12/05,14:45,16.5,49,14.9,15.6
 2003/12/05,15:00,16.4,49,15,15.6
 2003/12/05,15:15,16.5,49,15,15.6
 2003/12/05,15:30,16.5,49,14.9,15.6
 2003/12/05,15:45,16.5,49,14.9,15.6
 2003/12/05,16:00,16.5,49,14.9,15.6
 2003/12/05,16:15,16.6,50,14.9,15.6
 2003/12/05,16:30,16.9,49,14.9,14.7
 2003/12/05,16:45,16.5,49,14.8,14.7
 2003/12/05,17:00,16.5,49,14.8,14.8
 2003/12/05,17:15,16.5,49,14.7,14.7
 2003/12/05,17:30,16.9,50,14.6,14.7
 2003/12/05,17:45,17.1,52,14.5,14.7
 2003/12/05,18:00,16.9,51,14.5,14.8
 2003/12/05,18:15,17,52,14.4,14.8
 2003/12/05,18:30,17,51,14.5,14.8
 2003/12/05,18:45,17,50,14.5,14.8
 2003/12/05,19:00,16.9,50,14.5,14.9
 2003/12/05,19:15,16.8,51,14.4,14.9
 2003/12/05,19:30,16.8,51,14.5,14.9
 2003/12/05,19:45,16.6,51,14.4,14.9
 2003/12/05,20:00,16.7,51,14.4,14.9
 2003/12/05,20:15,16.5,52,14.3,15
 2003/12/05,20:30,16.6,52,14.5,15.4
 2003/12/05,20:45,16.9,50,14.7,15.4
 2003/12/05,21:00,21.8,42,14.8,15.5
 2003/12/05,21:15,23.3,45,14.8,15.5
 2003/12/05,21:30,22.9,47,15.1,14.8
 2003/12/05,21:45,23.3,46,15,14.9
 2003/12/05,22:00,23.2,44,14.9,15.3
 2003/12/05,22:15,23.2,46,15.1,15.3
 2003/12/05,22:30,23,47,15.1,15.3
 2003/12/05,22:45,22,49,15,15.3
 2003/12/05,23:00,21.3,50,15.1,15
 2003/12/05,23:15,21.1,50,14.9,15
 2003/12/05,23:30,20.6,52,14.9,15.1
 2003/12/05,23:45,20.5,51,15,15.1
 2003/12/06, 0:00,20,53,14.9,14.7
 2003/12/06, 0:15,19.8,55,14.9,14.8
 2003/12/06, 0:30,19.7,55,14.9,14.8
 2003/12/06, 0:45,19.5,56,15,14.8
 2003/12/06, 1:00,19.4,54,14.8,14.9
 2003/12/06, 1:15,19.2,55,14.8,14.9
 2003/12/06, 1:30,19,55,14.8,14.9
 2003/12/06, 1:45,19.1,54,14.8,14.9
 2003/12/06, 2:00,18.8,55,14.7,15
 2003/12/06, 2:15,18.6,55,14.7,15
 2003/12/06, 2:30,18.6,54,14.7,15
 2003/12/06, 2:45,18.4,55,14.6,15
 2003/12/06, 3:00,18.5,54,14.7,15.1
 2003/12/06, 3:15,18.2,55,14.5,15.1
 2003/12/06, 3:30,18.2,54,14.5,15.1
 2003/12/06, 3:45,18.1,55,14.5,15.1
 2003/12/06, 4:00,18,55,14.5,15.1
 2003/12/06, 4:15,17.8,55,14.3,15.2
 2003/12/06, 4:30,18,55,14.3,15.2
 2003/12/06, 4:45,17.8,55,14.4,15.2
 2003/12/06, 5:00,17.5,55,14.3,15.2
 2003/12/06, 5:15,17.6,54,14.5,14.7
 2003/12/06, 5:30,17.5,55,14.7,14.7
 2003/12/06, 5:45,17.6,54,14.5,14.8
 2003/12/06, 6:00,17.4,56,14.5,14.8
 2003/12/06, 6:15,17.4,62,14.6,14.8
 2003/12/06, 6:30,23,46,14.7,15.6
 2003/12/06, 6:45,23.2,45,14.3,15.6
 2003/12/06, 7:00,23.3,44,14.8,15.7
 2003/12/06, 7:15,23.5,42,14.8,15.9
 2003/12/06, 7:30,23.4,43,14.6,15.9
 2003/12/06, 7:45,23.9,41,14.7,15.9
 2003/12/06, 8:00,22.9,44,14.7,15.9
 2003/12/06, 8:15,22,47,15.3,15.6
 2003/12/06, 8:30,20.7,49,15.2,15.6
 2003/12/06, 8:45,20.2,49,15.2,15.7
 2003/12/06, 9:00,19.7,50,15.2,15.7
 2003/12/06, 9:15,19.4,51,15.3,15.7
 2003/12/06, 9:30,19.2,51,15.2,15.7
 2003/12/06, 9:45,18.9,52,15.3,15.7
 2003/12/06,10:00,18.8,52,15.2,15.7
 2003/12/06,10:15,18.5,53,15.2,15.8
 2003/12/06,10:30,18.5,53,15.3,15.8
 2003/12/06,10:45,18.3,54,15.3,15.8
 2003/12/06,11:00,18.1,54,15.3,15.8
 2003/12/06,11:15,18.1,55,15.3,15.8
 2003/12/06,11:30,17.9,55,15.3,15.9
 2003/12/06,11:45,17.9,56,15.2,15.9
 2003/12/06,12:00,17.8,56,15.3,15.9
 2003/12/06,12:15,17.8,56,15.3,15.9
 2003/12/06,12:30,17.7,57,15.2,15.9
 2003/12/06,12:45,17.5,58,15.1,15.9
 2003/12/06,13:00,17.5,57,15.1,15.9
 2003/12/06,13:15,17.6,58,15.5,15.9
 2003/12/06,13:30,17.4,58,15.6,16
 2003/12/06,13:45,17.6,58,15.7,16
 2003/12/06,14:00,17.5,58,15.8,16
 2003/12/06,14:15,17.7,57,15.8,16
 2003/12/06,14:30,17.6,58,15.8,16
 2003/12/06,14:45,17.8,58,15.9,16
 2003/12/06,15:00,17.9,58,15.9,16
 2003/12/06,15:15,17.8,58,16,16.1
 2003/12/06,15:30,17.6,59,16,16.1
 2003/12/06,15:45,17.9,58,16.1,16.1
 2003/12/06,16:00,18.2,57,16.1,16.1
 2003/12/06,16:15,18,58,16.2,16.1
 2003/12/06,16:30,18.1,58,16.1,16.1
 2003/12/06,16:45,18,58,16.1,16.2
 2003/12/06,17:00,17.9,59,16.1,16.2
 2003/12/06,17:15,17.7,59,16.1,16.2
 2003/12/06,17:30,17.9,59,16.3,16.2
 2003/12/06,17:45,17.6,60,16.2,16.2
 2003/12/06,18:00,17.9,59,16.4,14.9
 2003/12/06,18:15,22.9,49,16.5,15.6
 2003/12/06,18:30,23.2,52,16.4,15.6
 2003/12/06,18:45,21.6,59,16.6,15.7
 2003/12/06,19:00,23.6,52,16.8,15.7
 2003/12/06,19:15,22.7,59,16.9,15.7
 2003/12/06,19:30,22.9,64,16.8,15.8
 2003/12/06,19:45,23.2,64,16.9,15.8
 2003/12/06,20:00,22.3,64,16.9,15.6
 2003/12/06,20:15,21.9,64,16.9,15.6
 2003/12/06,20:30,21.8,62,17,15.7
 2003/12/06,20:45,21.7,73,16.9,15.7
 2003/12/06,21:00,23,59,17.1,15.3
 2003/12/06,21:15,22.7,57,17.2,15.5
 2003/12/06,21:30,22.7,60,17.1,15.6
 2003/12/06,21:45,22.3,61,17.1,15.3
 2003/12/06,22:00,23.4,57,17.2,15.4
 2003/12/06,22:15,22.5,66,17.5,15.4
 2003/12/06,22:30,22.5,65,17.4,15.5
 2003/12/06,22:45,22.2,64,17.3,15.3
 2003/12/06,23:00,22.1,64,17.2,15.3
 2003/12/06,23:15,22.2,63,17.2,15.4
 2003/12/06,23:30,22,65,17.1,15.4
 2003/12/06,23:45,21.7,61,17.5,15
 2003/12/07, 0:00,21.5,58,17.4,15.5
 2003/12/07, 0:15,21.3,58,17.3,15.5
 2003/12/07, 0:30,21.2,58,17.2,15.6
 2003/12/07, 0:45,21.1,59,17.2,15.6
 2003/12/07, 1:00,20.9,59,17,15.7
 2003/12/07, 1:15,20.8,58,17.1,15.7
 2003/12/07, 1:30,20.5,58,17,15.1
 2003/12/07, 1:45,20.4,57,17,15.2
 2003/12/07, 2:00,20.3,57,16.9,15.2
 2003/12/07, 2:15,20,57,16.8,15.3
 2003/12/07, 2:30,20.1,57,16.8,15.3
 2003/12/07, 2:45,19.9,57,16.7,15.4
 2003/12/07, 3:00,19.7,57,16.6,15.4
 2003/12/07, 3:15,19.6,56,16.6,15.4
 2003/12/07, 3:30,19.4,56,16.6,15.5
 2003/12/07, 3:45,19.4,56,16.5,15.5
 2003/12/07, 4:00,19.1,56,16.4,15.6
 2003/12/07, 4:15,19.1,55,16.4,15.6
 2003/12/07, 4:30,19.1,55,16.3,15.6
 2003/12/07, 4:45,18.8,55,16.2,15.7
 2003/12/07, 5:00,19.1,72,16.1,15.7
 2003/12/07, 5:15,18.9,61,16.1,15.7
 2003/12/07, 5:30,18.9,60,16,15.8
 2003/12/07, 5:45,18.7,59,16,15.8
 2003/12/07, 6:00,21.6,55,16.1,16
 2003/12/07, 6:15,21.4,67,16.2,15.8
 2003/12/07, 6:30,22.3,52,16.4,15.9
 2003/12/07, 6:45,22.8,52,16,15.9
 2003/12/07, 7:00,22.6,54,15.9,15.9
 2003/12/07, 7:15,22.6,54,15.8,15.9
 2003/12/07, 7:30,22.7,54,15.6,15.9
 2003/12/07, 7:45,22.6,54,15.5,16
 2003/12/07, 8:00,22.7,54,15.3,16
 2003/12/07, 8:15,23.1,50,15.2,16
 2003/12/07, 8:30,21.8,53,15.3,16
 2003/12/07, 8:45,21.2,52,15,16.1
 2003/12/07, 9:00,20.6,46,15.3,15.5
 2003/12/07, 9:15,19.7,40,15,15.6
 2003/12/07, 9:30,19.1,33,15.1,15.6
 2003/12/07, 9:45,18.7,35,14.6,15.6
 2003/12/07,10:00,19.1,49,14.6,15.6
 2003/12/07,10:15,19.1,47,14.7,15.7
 2003/12/07,10:30,18.6,36,14.4,15.7
 2003/12/07,10:45,18.7,38,14.3,15
 2003/12/07,11:00,18.3,37,14,15
 2003/12/07,11:15,21.9,31,14.4,15.1
 2003/12/07,11:30,22.9,32,14.6,14.9
 2003/12/07,11:45,23.3,35,14.1,14.9
 2003/12/07,12:00,23.6,36,14,15
 2003/12/07,12:15,23,37,14.2,14.7
 2003/12/07,12:30,20.8,35,14.7,14.7
 2003/12/07,12:45,20,37,14.5,14.8
 2003/12/07,13:00,19.4,38,14.5,14.8
 2003/12/07,13:15,19,38,14.5,14.8
 2003/12/07,13:30,18.5,39,14.3,14.8
 2003/12/07,13:45,18.4,38,14.3,14.9
 2003/12/07,14:00,17.8,38,14.2,14.9
 2003/12/07,14:15,17.8,39,14.1,14.9
 2003/12/07,14:30,17.3,39,13.9,14.9
 2003/12/07,14:45,17.3,39,14,14.9
 2003/12/07,15:00,17,39,13.8,14.9
 2003/12/07,15:15,16.8,39,13.7,14.9
 2003/12/07,15:30,16.6,38,13.9,14.9
 2003/12/07,15:45,16.6,39,13.8,14.9
 2003/12/07,16:00,16.4,39,13.4,14.9
 2003/12/07,16:15,16.3,39,13.3,14.9
 2003/12/07,16:30,16.4,39,13.3,15
 2003/12/07,16:45,16,39,13.3,15
 2003/12/07,17:00,16.1,40,13.1,15
 2003/12/07,17:15,16.1,41,12.8,14.9
 2003/12/07,17:30,21.9,34,12.9,14.9
 2003/12/07,17:45,23,36,12.7,14.9
 2003/12/07,18:00,23.3,36,12.8,15
 2003/12/07,18:15,24.3,36,12.9,15
 2003/12/07,18:30,23.8,39,12.8,15
 2003/12/07,18:45,24,39,12.8,15
 2003/12/07,19:00,23.9,33,13.9,15
 2003/12/07,19:15,23.4,38,13.5,15
 2003/12/07,19:30,23,43,13.3,15
 2003/12/07,19:45,23.6,37,13.2,15
 2003/12/07,20:00,23.7,35,13.8,14.6
 2003/12/07,20:15,23.1,37,13.3,14.8
 2003/12/07,20:30,23.3,37,13.4,14.8
 2003/12/07,20:45,23.5,37,13.2,14.8